Location: *
(10.4782°N, 67.2163°W)
Time: 01:52:47
(UTC+00:00)

Cosmos 2366 rocket - Pass Details

Date: 23 May 2024
Orbit: 954 x 997 km, 82.9° (Epoch: 12 June)

Event Time Altitude Azimuth Distance (km) Brightness Sun altitude
Exits shadow 08:48:01 22° 210° (SSW) 1,994 5.2 -18.4°
Maximum altitude 08:51:52 50° 274° (W) 1,251 4.2 -17.6°
Drops below altitude 10° 08:57:58 10° 349° (NNW) 2,757 6.5 -16.2°
Sets 09:00:35 0° 354° (N) 3,705 7.3 -15.6°
